Flag for USA

Past Weather in Woodbridge Street Historic District, Massachusetts, USA — Yesterday and Last 2 Weeks

Now
48 °F

Light rain. Low clouds.


Feels Like: 42 °F
Forecast: 52 / 29 °F
Wind: 14 mph from South

Location: Chicopee Falls / Westover Air Force Base

Current Time: Jan 24, 2019 at 7:55:41 am

Latest Report: Jan 24, 2019 at 6:56 am


Visibility: 5 mi

Pressure: 29.69 "Hg

Humidity: 99%

Dew Point: 48 °F

Location of Woodbridge Street Historic DistrictLocation

Past Weather in Woodbridge Street Historic District — Graph

°F

Woodbridge Street Historic District Temperature Yesterday

Maximum temperature yesterday: 38 °F (at 10:56 pm)
Minimum temperature yesterday: 11 °F (at 1:56 am)
Average temperature yesterday: 29 °F

High & Low Weather Summary for the Past Weeks

 TemperatureHumidityPressure
High48 °F (Jan 24, 6:03 am)100% (Jan 9, 6:56 am)30.60 "Hg (Jan 9, 6:56 am)
Low-5 °F (Jan 21, 7:56 am)18% (Jan 17, 2:56 pm)29.31 "Hg (Jan 20, 11:56 am)
Average23 °F61%30.07 "Hg
* Reported Jan 9 6:56 am — Jan 24 6:33 am, Woodbridge Street Historic District. Weather by CustomWeather, © 2019

Note: Actual official high and low records may vary slightly from our data, if they occured in-between our weather recording intervals... More about our weather records

Advertising

Woodbridge Street Historic District Weather History for the Previous 24 Hours

Scroll right to see more
 ConditionsComfort  
Time TempWeatherWind HumidityBarometerVisibility
6:33 am
Thu, Jan 24
48 °FLight rain. Fog.17 mph100%29.70 "Hg5 mi
6:03 am48 °FDrizzle. Low clouds.18 mph100%29.72 "Hg10 mi
4:56 am47 °FLight rain. Low clouds.17 mph100%29.75 "Hg9 mi
4:26 am46 °FLight rain. Low clouds.15 mph100%29.76 "Hg7 mi
3:56 am47 °FLight rain. Fog.16 mph99%29.79 "Hg4 mi
3:29 am45 °FLight rain. Fog.12 mph93%29.81 "Hg1 mi
2:56 am35 °FFog.No wind97%29.83 "Hg1 mi
2:19 am36 °FLight rain. Fog.No wind93%29.85 "Hg1 mi
2:11 am36 °FLight rain. Fog.3 mph93%29.85 "Hg1 mi
1:56 am35 °FLight rain. Fog.No wind97%29.86 "Hg1 mi
1:35 am36 °FLight rain. Fog.No wind93%29.87 "Hg1 mi
1:11 am36 °FLight rain. Fog.No wind93%29.89 "Hg3 mi
12:56 am35 °FDrizzle. Low clouds.No wind93%29.90 "Hg8 mi
12:16 am36 °FDrizzle. Mostly cloudy.3 mph93%29.93 "Hg10 mi
11:56 pm
Wed, Jan 23
36 °FMostly cloudy.5 mph89%29.94 "Hg10 mi
10:56 pm38 °FOvercast.9 mph81%29.96 "Hg10 mi
9:56 pm38 °FOvercast.9 mph77%29.98 "Hg10 mi
8:56 pm37 °FOvercast.9 mph74%29.99 "Hg10 mi
7:56 pm37 °FOvercast.10 mph67%30.03 "Hg10 mi
6:56 pm36 °FOvercast.10 mph64%30.05 "Hg10 mi
6:44 pm36 °FOvercast.9 mph65%30.06 "Hg10 mi
6:11 pm36 °FOvercast.12 mph65%30.07 "Hg10 mi
5:26 pm36 °FOvercast.14 mph65%30.09 "Hg10 mi
4:56 pm36 °FOvercast.14 mph64%30.09 "Hg10 mi
2:56 pm36 °FOvercast.14 mph61%30.14 "Hg10 mi
1:56 pm35 °FMostly cloudy.13 mph62%30.16 "Hg10 mi
12:56 pm35 °FOvercast.21 mph57%30.19 "Hg10 mi
11:56 am32 °FPartly sunny.13 mph60%30.22 "Hg10 mi
10:56 am31 °FPartly sunny.12 mph60%30.26 "Hg10 mi
9:56 am29 °FMostly cloudy.10 mph64%30.30 "Hg10 mi
8:56 am25 °FMostly cloudy.7 mph67%30.33 "Hg10 mi
7:56 am22 °FCloudy.9 mph70%30.35 "Hg10 mi
Weather by CustomWeather, © 2019

See weather overview